Location: Newark
(25.4297°S, 49.2719°W)
Time: 13:25:47
(UTC+00:00)

S-56A Canister/Altair - All Passes

Search period start: 19 November 2019 00:00
Search period end: 29 November 2019 00:00
Orbit: 634 x 2498 km, 38.9° (Epoch: 17 November)

Date Brightness Start Highest point End Pass type
(mag) Time Alt. Az. Time Alt. Az. Time Alt. Az.
19 Nov - 06:24:50 10° NW 06:30:55 61° NE 06:40:17 10° ESE visible
19 Nov - 08:28:29 10° W 08:36:11 52° SSW 08:47:49 10° ESE daylight
19 Nov - 10:34:05 10° WSW 10:43:56 43° S 10:57:14 10° ESE daylight
19 Nov - 12:39:37 10° SW 12:52:20 61° SSE 13:07:23 10° ENE daylight
19 Nov - 14:45:22 10° WSW 14:59:47 71° NW 15:14:15 10° NE daylight
19 Nov - 16:54:21 10° W 17:05:27 25° NW 17:15:42 10° N daylight
20 Nov - 05:52:38 10° NNW 05:58:14 50° NE 06:06:36 10° ESE visible
20 Nov - 07:55:50 10° W 08:03:00 54° SSW 08:13:58 10° SE visible
20 Nov - 10:01:13 10° WSW 10:10:21 41° S 10:23:01 10° ESE daylight
20 Nov - 12:06:36 10° SW 12:18:35 57° SSE 12:33:27 10° E daylight
20 Nov - 14:12:03 10° WSW 14:26:07 78° NW 14:41:01 10° NE daylight
20 Nov - 16:20:06 10° W 16:32:06 30° NW 16:43:25 10° N daylight
21 Nov - 05:20:31 10° NNW 05:25:39 40° NE 05:32:57 10° ESE visible
21 Nov - 07:23:15 10° W 07:29:55 58° SSW 07:40:12 10° SE visible
21 Nov - 09:28:25 10° WSW 09:36:51 40° S 09:48:50 10° ESE daylight
21 Nov - 11:33:40 10° SW 11:44:54 53° SSE 11:59:25 10° E daylight
21 Nov - 13:38:49 10° WSW 13:52:26 84° NW 14:07:38 10° NE daylight
21 Nov - 15:46:07 10° WSW 15:58:41 35° NW 16:10:56 10° NNE daylight
22 Nov - 04:48:31 10° NNW 04:53:07 31° NE 04:59:20 10° ESE visible
22 Nov - 06:50:43 10° WNW 06:56:56 63° SSW 07:06:31 10° SE visible
22 Nov - 08:55:41 10° WSW 09:03:28 39° S 09:14:42 10° ESE daylight
22 Nov - 11:00:49 10° SW 11:11:16 50° SSE 11:25:16 10° E daylight
22 Nov - 13:05:43 10° WSW 13:18:46 89° SSE 13:34:08 10° NE daylight
22 Nov - 15:12:21 10° WSW 15:25:13 40° NW 15:38:15 10° NNE daylight
23 Nov - 04:16:39 10° N 04:20:38 23° NE 04:25:39 10° E visible
23 Nov - 06:18:14 10° WNW 06:24:03 69° SSW 06:32:56 10° SE visible
23 Nov - 08:23:00 10° WSW 08:30:11 38° S 08:40:39 10° ESE daylight
23 Nov - 10:28:01 10° SW 10:37:43 46° SSE 10:51:04 10° E daylight
23 Nov - 12:32:41 10° WSW 12:45:07 83° SSE 13:00:29 10° ENE daylight
23 Nov - 14:38:46 10° WSW 14:51:42 45° NW 15:05:23 10° NNE daylight
23 Nov - 16:54:24 10° WNW 16:57:16 11° NW 17:00:07 10° NW daylight
24 Nov - 03:45:01 10° N 03:48:11 17° NE 03:51:53 10° E visible
24 Nov - 05:45:49 10° WNW 05:51:16 78° SSW 05:59:27 10° ESE visible
24 Nov - 07:50:20 10° WSW 07:56:58 38° S 08:06:40 10° ESE visible
24 Nov - 09:55:18 10° SW 10:04:15 43° SSE 10:16:49 10° E daylight
24 Nov - 11:59:47 10° WSW 12:11:31 77° SSE 12:26:41 10° ENE daylight
24 Nov - 14:05:21 10° WSW 14:18:10 50° NW 14:32:21 10° NNE daylight
24 Nov - 16:17:29 10° WNW 16:23:56 14° NW 16:30:21 10° NNW daylight
25 Nov - 03:13:53 10° NNE 03:15:42 12° NE 03:17:40 10° ENE night (unlit)
25 Nov - 05:13:25 10° WNW 05:18:33 90° WSW 05:26:04 10° ESE visible
25 Nov - 07:17:43 10° WSW 07:23:51 37° S 07:32:49 10° SE visible
25 Nov - 09:22:38 10° SW 09:30:51 40° SSE 09:42:32 10° ESE daylight
25 Nov - 11:26:56 10° SW 11:37:58 70° SSE 11:52:47 10° ENE daylight
25 Nov - 13:32:04 10° WSW 13:44:37 55° NW 13:59:12 10° NNE daylight
25 Nov - 15:42:18 10° W 15:50:33 17° NW 15:58:55 10° NNW daylight
26 Nov - 04:41:04 10° NW 04:45:56 76° NE 04:52:45 10° ESE visible
26 Nov - 06:45:07 10° W 06:50:49 38° SSW 06:59:06 10° SE visible
26 Nov - 08:50:01 10° SW 08:57:31 37° S 09:08:18 10° ESE daylight
26 Nov - 10:54:11 10° SW 11:04:29 65° SSE 11:18:47 10° ENE daylight
26 Nov - 12:58:56 10° WSW 13:11:04 61° NW 13:25:52 10° NE daylight
26 Nov - 15:07:47 10° W 15:17:09 21° NW 15:26:55 10° N daylight
27 Nov - 04:08:46 10° NW 04:13:22 61° NE 04:19:31 10° ESE visible
27 Nov - 06:12:32 10° W 06:17:52 38° SSW 06:25:31 10° SE visible
27 Nov - 08:17:26 10° SW 08:24:17 34° S 08:34:07 10° ESE daylight
27 Nov - 10:21:31 10° SW 10:31:03 59° SSE 10:44:42 10° ENE daylight
27 Nov - 12:25:55 10° WSW 12:37:32 67° NW 12:52:26 10° NE daylight
27 Nov - 14:33:41 10° W 14:43:43 24° NW 14:54:33 10° N daylight
28 Nov - 03:36:30 10° NW 03:40:52 47° NE 03:46:21 10° ESE visible
28 Nov - 05:39:58 10° W 05:45:00 40° SSW 05:52:04 10° SE visible
28 Nov - 07:44:53 10° SW 07:51:07 32° S 08:00:01 10° ESE visible
28 Nov - 09:48:54 10° SW 09:57:43 53° SSE 10:10:34 10° E daylight
28 Nov - 11:53:00 10° WSW 12:04:03 74° NW 12:18:52 10° NE daylight
28 Nov - 13:59:53 10° W 14:10:15 28° NW 14:21:56 10° N daylight
